Tracking 20242 objects as of 24-Jan-2020
HD Live streaming from Space Station
objects crossing your sky now

GEOS 2

Track GEOS 2 now!
GEOS 2 is classified as:


NORAD ID: 10981
Int'l Code: 1978-071A
Perigee: 36,016.8 km
Apogee: 36,073.5 km
Inclination: 11.1 °
Period: 1,449.0 minutes
Semi major axis: 42416 km
RCS: 2.0304 m2 (large)
Launch date: July 14, 1978
Source: European Space Agency (ESA)
Launch site: AIR FORCE EASTERN TEST RANGE (AFETR)
aabbcc
Your satellite tracking list
Your tracking list is empty




NASA's NSSDC Master Catalog

Two Line Element Set (TLE):
1 10981U 78071A   20023.73540231 -.00000299  00000-0  00000+0 0  9994
2 10981  11.0810 311.9706 0006689 343.7975 238.7083  0.99381596150755
Source of the keplerian elements: AFSPC